Change the Weather History Date:

Wednesday, July 24, 2013

  Actual Average Record
Temperature  
Mean Temperature 68 °F -  
Max Temperature 75 °F 82 °F 95 °F (2005)
Min Temperature 60 °F 61 °F 51 °F (2004)
Cooling Degree Days 2    
Growing Degree Days 18 (Base 50)    
Moisture  
Dew Point 57 °F    
Average Humidity 71    
Maximum Humidity 86    
Minimum Humidity 53    
Precipitation  
Precipitation 0.00 in - - ()
Sea Level Pressure  
Sea Level Pressure 29.94 in    
Wind  
Wind Speed 10 mph (North)    
Max Wind Speed 13 mph    
Max Gust Speed -    
Visibility 10 miles    
Events      
Averages and records for this station are not official NWS values.
T = Trace of Precipitation, MM = Missing Value Source: NWS Daily Summary

Daily Weather History Graph

Daily Weather History Graph

Search for Another Location

Airport or City:

Trip Planner

Search our weather history database for the weather conditions in past years. The results will help you decide how hot, cold, wet, or windy it might be!

Date:

Astronomy

Jul. 24, 2013 Rise Set
Actual Time 6:28 AM EDT 8:56 PM EDT
Civil Twilight 5:57 AM EDT 9:27 PM EDT
Nautical Twilight 5:18 AM EDT 10:05 PM EDT
Astronomical Twilight 4:35 AM EDT 10:48 PM EDT
Moon 10:02 PM EDT (7/24) 8:46 AM EDT (7/24)
Length of Visible Light 15h 30m
Length of Day
14h 28m
Waning Gibbous, 95% of the Moon is Illuminated
Jul 24
Waning Gibbous
Jul 29
Last Quarter
Aug 6
New
Aug 14
First Quarter
Aug 20
Full

Hourly Weather History & Observations

Time (EDT) Temp. Dew Point Humidity Pressure Visibility Wind Dir Wind Speed Gust Speed Precip Events Conditions
12:58 AM 67.5 °F 59.9 °F 77% 29.85 in 10.0 mi NW 10.4 mph - N/A   Clear
1:58 AM 65.5 °F 57.4 °F 75% 29.85 in 10.0 mi NNW 10.4 mph - N/A   Scattered Clouds
2:08 AM 66.2 °F 57.2 °F 73% 29.86 in 10.0 mi NNW 8.1 mph - N/A   Mostly Cloudy
2:58 AM 64.6 °F 56.7 °F 75% 29.85 in 10.0 mi NW 11.5 mph - N/A   Mostly Cloudy
3:58 AM 63.0 °F 57.2 °F 81% 29.84 in 10.0 mi NNW 10.4 mph - N/A   Scattered Clouds
4:58 AM 61.9 °F 57.7 °F 86% 29.85 in 10.0 mi NNW 8.1 mph - N/A   Partly Cloudy
5:48 AM 62.6 °F 57.2 °F 82% 29.88 in 10.0 mi NNW 9.2 mph - N/A   Mostly Cloudy
5:58 AM 61.7 °F 56.8 °F 84% 29.88 in 10.0 mi NNW 9.2 mph - N/A   Overcast
6:58 AM 61.9 °F 56.8 °F 84% 29.91 in 10.0 mi NNW 8.1 mph - N/A   Overcast
7:58 AM 62.6 °F 56.8 °F 81% 29.93 in 10.0 mi North 8.1 mph - N/A   Mostly Cloudy
8:58 AM 63.9 °F 56.8 °F 78% 29.94 in 10.0 mi North 10.4 mph - N/A   Mostly Cloudy
9:18 AM 66.2 °F 57.2 °F 73% 29.94 in 10.0 mi North 8.1 mph - N/A   Mostly Cloudy
9:58 AM 66.9 °F 57.6 °F 72% 29.95 in 10.0 mi NNE 12.7 mph - N/A   Mostly Cloudy
10:08 AM 66.2 °F 57.2 °F 73% 29.95 in 10.0 mi NNE 9.2 mph - N/A   Mostly Cloudy
10:58 AM 68.4 °F 58.6 °F 71% 29.96 in 10.0 mi NE 10.4 mph - N/A   Mostly Cloudy
11:58 AM 69.8 °F 59.4 °F 69% 29.97 in 10.0 mi NNE 9.2 mph - N/A   Mostly Cloudy
12:58 PM 71.8 °F 60.1 °F 67% 29.97 in 10.0 mi NNE 8.1 mph - N/A   Mostly Cloudy
1:58 PM 73.8 °F 60.1 °F 62% 29.97 in 10.0 mi North 9.2 mph - N/A   Mostly Cloudy
2:58 PM 73.8 °F 57.9 °F 58% 29.97 in 10.0 mi North 6.9 mph - N/A   Mostly Cloudy
3:58 PM 74.1 °F 56.8 °F 55% 29.97 in 10.0 mi NNE 10.4 mph - N/A   Mostly Cloudy
4:58 PM 74.3 °F 56.1 °F 53% 29.97 in 10.0 mi NE 9.2 mph - N/A   Mostly Cloudy
5:58 PM 73.2 °F 55.2 °F 53% 29.98 in 10.0 mi North 11.5 mph - N/A   Mostly Cloudy
6:58 PM 72.1 °F 54.9 °F 54% 29.97 in 10.0 mi NNE 8.1 mph - N/A   Partly Cloudy
7:58 PM 70.3 °F 53.6 °F 55% 29.99 in 10.0 mi NNE 10.4 mph - N/A   Partly Cloudy
8:58 PM 67.3 °F 55.4 °F 66% 29.99 in 10.0 mi NNE 9.2 mph - N/A   Clear
9:58 PM 63.5 °F 55.2 °F 74% 30.01 in 10.0 mi North 4.6 mph - N/A   Partly Cloudy
10:58 PM 62.6 °F 55.0 °F 76% 30.02 in 10.0 mi NNE 10.4 mph - N/A   Clear
11:58 PM 60.3 °F 54.3 °F 81% 30.03 in 10.0 mi NNE 8.1 mph - N/A   Clear